Flag for China Weather past 2 weeks in Kunming, Yunnan, China

Now
68 °F

Broken clouds.


Feels Like: 68 °F
Forecast: 60 / 71 °F
Wind: 13 mph from Southwest

Location: Kunming Airport

Current Time: Aug 4, 2015 at 6:24:08 PM

Latest Report: Aug 4, 2015 at 5:00 PM


Visibility: N/A

Pressure: 30.01 "Hg (24.02 "Hg at 1909m altitude)

Humidity: 83%

Dew point: 63 °F

Location of KunmingLocation

Historic Weather in Kunming — Graph

°F

Kunming temperature yesterday

Maximum temperature yesterday: 70 °F (at 3:00 PM)
Minimum temperature yesterday: 59 °F (at 2:00 AM)
Average temperature yesterday: 64 °F

Past Weeks' High & Low Weather Summary

 TemperatureHumidityPressure
High77 °F (Jul 21, 2:00 PM)100% (Jul 23, 1:00 AM)30.21 "Hg (Jul 23, 1:00 AM)
Low54 °F (Jul 26, 6:00 AM)36% (Jul 26, 3:00 PM)29.98 "Hg (Jul 22, 4:00 PM)
Average64 °F81%30.10 "Hg
* Reported Jul 20 5:00 PM — Aug 4 5:00 PM, Kunming, Weather by CustomWeather, © 2015

Note: Actual official high and low records may vary slightly from our data, if they occured in-between our weather recording intervals... More about our weather records

Advertising

Kunming weather history for previous 24 hours

 ConditionsComfort  
Time TempWeatherWind HumidityBarometerVisibility
5:00 PM
Tue, Aug 4
68 °FBroken clouds.13 mph83%30.01 "HgN/A
4:00 PM64 °FSprinkles. More clouds than sun.20 mph88%30.04 "Hg4 mi
3:00 PM70 °FBroken clouds.8 mph73%30.04 "HgN/A
2:00 PM70 °FBroken clouds.8 mph64%30.07 "HgN/A
1:00 PM70 °FPartly sunny.10 mph64%30.07 "HgN/A
12:00 PM68 °FPartly sunny.8 mph73%30.09 "HgN/A
11:00 AM66 °FScattered clouds.10 mph73%30.09 "HgN/A
10:00 AM64 °FMore clouds than sun.6 mph78%30.09 "HgN/A
9:00 AM63 °FMore clouds than sun.8 mph83%30.09 "HgN/A
8:00 AM63 °FMore clouds than sun.8 mph83%30.07 "HgN/A
7:00 AM61 °FMore clouds than sun.6 mph94%30.07 "HgN/A
6:00 AM61 °FMostly cloudy.6 mph94%30.07 "HgN/A
5:00 AM61 °FPartly cloudy.1 mph94%30.07 "HgN/A
4:00 AM61 °FPartly cloudy.6 mph94%30.07 "HgN/A
3:00 AM63 °FPartly cloudy.3 mph88%30.09 "HgN/A
2:00 AM63 °FPartly cloudy.6 mph83%30.09 "HgN/A
12:00 AM63 °FPartly cloudy.3 mph83%30.12 "HgN/A
11:00 PM
Mon, Aug 3
63 °FPassing clouds.3 mph88%30.12 "HgN/A
10:00 PM64 °FPassing clouds.6 mph78%30.09 "HgN/A
9:00 PM63 °FClear.3 mph83%30.07 "Hg10 mi
8:00 PM64 °FPassing clouds.6 mph78%30.04 "HgN/A
7:00 PM68 °FPassing clouds.10 mph69%30.04 "HgN/A
6:00 PM70 °FScattered clouds.3 mph64%30.04 "HgN/A
Weather by CustomWeather, © 2015

See weather overviewHow to use our weather pages